Location: Katowice
(50.2611°N, 19.0242°E)
Time: 01:53:22
(UTC+02:00)

Explorer 7 - Pass Details

Date: 02 September 2019
Orbit: 485 x 680 km, 50.3° (Epoch: 18 September)

Event Time Altitude Azimuth Distance (km) Brightness Sun altitude
Rises 10:42:45 0° 283° (WNW) 3,017 10.2 40.8°
Reaches altitude 10° 10:45:10 10° 281° (W) 2,085 9.5 41.1°
Maximum altitude 10:49:56 66° 200° (SSW) 704 8.3 41.5°
Drops below altitude 10° 10:54:28 10° 118° (ESE) 1,979 10.6 42.0°
Sets 10:56:43 0° 116° (ESE) 2,850 11.1 42.2°
